Flag for U.S.A. Weather past 2 weeks in Madison, Wisconsin, U.S.A.

Now
24 °F

Ice fog.


Feels Like: 24 °F
Forecast: 23 / 31 °F
Wind: No wind

Location: Dane County Regional-Truax Field

Current Time: Jan 27, 2015 at 12:33:29 AM

Latest Report: Jan 26, 2015 at 11:53 PM


Visibility: 5 mi

Pressure: 29.94 "Hg

Humidity: 88%

Dew point: 21 °F

Location of MadisonLocation

Historic Weather in Madison — Graph

°F

Madison temperature yesterday

Maximum temperature yesterday: 25 °F (at 10:53 PM)
Minimum temperature yesterday: 10 °F (at 2:53 AM)
Average temperature yesterday: 20 °F

Past Weeks' High & Low Weather Summary

 TemperatureHumidityPressure
High41 °F (Jan 17, 10:53 AM)96% (Jan 19, 7:53 AM)30.81 "Hg (Jan 19, 7:53 AM)
Low-6 °F (Jan 12, 10:53 PM)53% (Jan 12, 2:53 PM)29.52 "Hg (Jan 17, 1:53 PM)
Average25 °F77%30.08 "Hg
* Reported Jan 11 10:53 PM — Jan 26 10:53 PM, Madison, Weather by CustomWeather, © 2014

Note: Actual official high and low records may vary slightly from our data, if they occured in-between our weather recording intervals... More about our weather records

Advertising

Madison weather history for previous 24 hours

 ConditionsComfort  
Time TempWeatherWind HumidityBarometerVisibility
10:53 PM
Jan 26
25 °FIce fog.No wind88%29.94 "Hg6 mi
9:53 PM24 °FLight snow. Ice fog.5 mph91%29.92 "Hg5 mi
9:00 PM24 °FLight snow. Ice fog.6 mph91%29.87 "Hg2 mi
7:53 PM24 °FLight snow. Ice fog.6 mph91%29.91 "Hg2 mi
6:53 PM24 °FLight snow. Ice fog.7 mph91%29.90 "Hg3 mi
5:53 PM24 °FLight freezing rain. Ice fog.7 mph88%29.89 "Hg2 mi
4:53 PM23 °FLight freezing rain. Ice fog.10 mph92%29.87 "Hg1 mi
3:53 PM23 °FLight snow. Ice fog.9 mph88%29.86 "Hg1 mi
2:53 PM22 °FLight snow. Ice fog.12 mph89%29.85 "Hg1 mi
1:53 PM22 °FLight snow. Ice fog.12 mph89%29.85 "Hg2 mi
12:53 PM21 °FLight snow. Ice fog.10 mph85%29.86 "Hg2 mi
12:04 PM21 °FLight snow. Ice fog.12 mph85%29.83 "Hg1 mi
11:53 AM21 °FLight snow. Ice fog.12 mph85%29.87 "Hg2 mi
10:53 AM20 °FLight snow. Ice fog.10 mph85%29.90 "Hg2 mi
10:00 AM19 °FLight snow. Ice fog.8 mph85%29.88 "Hg1 mi
8:53 AM18 °FLight snow. Overcast.9 mph80%29.93 "Hg1 mi
7:53 AM18 °FOvercast.8 mph71%29.96 "Hg10 mi
6:53 AM17 °FPassing clouds.5 mph76%29.97 "Hg10 mi
5:53 AM16 °FPassing clouds.No wind80%29.98 "Hg10 mi
4:53 AM15 °FPassing clouds.No wind80%29.99 "Hg10 mi
3:53 AM13 °FClear.No wind84%30.01 "Hg10 mi
2:53 AM10 °FClear.No wind88%30.03 "Hg10 mi
1:53 AM11 °FClear.No wind84%30.05 "Hg10 mi
12:53 AM14 °FClear.No wind80%30.06 "Hg10 mi
Weather by CustomWeather, © 2014

See weather overviewHow to use our weather pages